ELY541 LLBG-LGAV

Flight info

Callsign ELY541
Flight time 1h 47m
Altitude 32000
Route SUVAS N128 OTHON DCT USINI UL995 VARIX
Aircraft B739/M-SDE2E3FGHIRWXY/LB1

Departure

Time 2026-05-04 07:01
Airport Ben Gurion International Airport (LLBG)

Arrival

Time 2026-05-04 08:48
Airport Athens Eleftherios Venizelos International Airport (LGAV)
Time Latitude Longitude Altitude Speed Heading
2026-05-04 06:31 32.00426 34.87557 114 ft 0 kts 227°
2026-05-04 06:51 32.00432 34.87564 119 ft 3 kts 222°
2026-05-04 06:51 32.00447 34.87575 114 ft 3 kts 193°
2026-05-04 06:52 32.00467 34.87579 115 ft 3 kts 185°
2026-05-04 06:52 32.00487 34.87582 117 ft 3 kts 196°
2026-05-04 06:52 32.00505 34.87590 116 ft 3 kts 214°
2026-05-04 06:52 32.00520 34.87605 117 ft 3 kts 232°
2026-05-04 06:53 32.00527 34.87616 102 ft 2 kts 238°
2026-05-04 06:53 32.00534 34.87635 101 ft 3 kts 264°
2026-05-04 06:53 32.00532 34.87656 118 ft 3 kts 297°
2026-05-04 06:53 32.00521 34.87675 114 ft 3 kts 317°
2026-05-04 06:54 32.00505 34.87689 116 ft 3 kts 332°
2026-05-04 06:54 32.00490 34.87697 116 ft 2 kts 346°
2026-05-04 06:54 32.00487 34.87698 117 ft 1 kts 347°
2026-05-04 06:56 32.00488 34.87697 116 ft 1 kts 346°
2026-05-04 06:57 32.00984 34.88205 119 ft 26 kts 32°
2026-05-04 06:58 32.01147 34.88323 117 ft 28 kts 31°
2026-05-04 06:58 32.01305 34.88452 119 ft 27 kts 42°
2026-05-04 06:58 32.01427 34.88630 118 ft 30 kts 59°
2026-05-04 06:58 32.01499 34.88848 119 ft 28 kts 76°
2026-05-04 06:59 32.01530 34.89065 119 ft 26 kts 79°
2026-05-04 06:59 32.01614 34.89155 115 ft 15 kts 351°
2026-05-04 06:59 32.01716 34.89133 116 ft 16 kts 336°
2026-05-04 06:59 32.01732 34.89008 116 ft 24 kts 259°
2026-05-04 07:01 32.00247 34.81111 3436 ft 163 kts 254°
2026-05-04 07:01 31.99957 34.79726 3704 ft 184 kts 255°
2026-05-04 07:02 31.99633 34.78184 3930 ft 205 kts 255°
2026-05-04 07:02 31.99274 34.76484 4235 ft 224 kts 255°
2026-05-04 07:02 31.99243 34.74572 4574 ft 245 kts 279°
2026-05-04 07:02 31.99681 34.72615 5322 ft 248 kts 282°
2026-05-04 07:03 32.00147 34.70657 6165 ft 247 kts 283°
2026-05-04 07:03 32.00612 34.68711 6860 ft 252 kts 283°
2026-05-04 07:03 32.01091 34.66718 7594 ft 252 kts 283°
2026-05-04 07:03 32.01581 34.64719 8337 ft 254 kts 283°
2026-05-04 07:04 32.02075 34.62697 9053 ft 257 kts 283°
2026-05-04 07:04 32.02560 34.60693 9805 ft 258 kts 283°
2026-05-04 07:04 32.03054 34.58637 10362 ft 266 kts 283°
2026-05-04 07:04 32.03576 34.56442 10527 ft 288 kts 283°
2026-05-04 07:05 32.04130 34.54099 10692 ft 307 kts 283°
2026-05-04 07:05 32.04723 34.51589 10846 ft 326 kts 283°
2026-05-04 07:05 32.05346 34.48951 11106 ft 340 kts 283°
2026-05-04 07:05 32.05985 34.46246 11696 ft 342 kts 283°
2026-05-04 07:06 32.07262 34.40838 13160 ft 342 kts 282°
2026-05-04 07:06 32.07890 34.38163 13778 ft 344 kts 282°
2026-05-04 07:06 32.08531 34.35431 14326 ft 346 kts 282°
2026-05-04 07:07 32.09172 34.32695 14939 ft 345 kts 281°
2026-05-04 07:08 32.13652 34.13472 18716 ft 350 kts 279°
2026-05-04 07:09 32.14288 34.10729 19089 ft 352 kts 279°
2026-05-04 07:09 32.14936 34.07932 19473 ft 354 kts 279°
2026-05-04 07:09 32.15588 34.05119 19876 ft 356 kts 279°
2026-05-04 07:09 32.16251 34.02290 20283 ft 359 kts 281°
2026-05-04 07:10 32.17164 33.99513 20682 ft 367 kts 287°
2026-05-04 07:10 32.17928 33.97719 20928 ft 372 kts 291°
2026-05-04 07:12 32.28737 33.79670 23499 ft 391 kts 297°
2026-05-04 07:12 32.30317 33.77044 23814 ft 393 kts 296°
2026-05-04 07:12 32.31904 33.74403 24114 ft 394 kts 296°
2026-05-04 07:12 32.33492 33.71759 24424 ft 395 kts 296°
2026-05-04 07:13 32.35084 33.69104 24723 ft 396 kts 296°
2026-05-04 07:13 32.36683 33.66435 25009 ft 398 kts 296°
2026-05-04 07:13 32.38291 33.63749 25304 ft 399 kts 296°
2026-05-04 07:14 32.44731 33.52973 26408 ft 405 kts 296°
2026-05-04 07:14 32.46359 33.50244 26733 ft 405 kts 296°
2026-05-04 07:15 32.47982 33.47527 27148 ft 403 kts 296°
2026-05-04 07:15 32.49594 33.44827 27574 ft 401 kts 296°
2026-05-04 07:15 32.51196 33.42138 27964 ft 399 kts 296°
2026-05-04 07:15 32.52798 33.39446 28329 ft 399 kts 296°
2026-05-04 07:16 32.54394 33.36760 28720 ft 398 kts 296°
2026-05-04 07:16 32.55985 33.34083 29136 ft 396 kts 296°
2026-05-04 07:16 32.57570 33.31414 29534 ft 395 kts 296°
2026-05-04 07:16 32.59150 33.28750 29918 ft 395 kts 296°
2026-05-04 07:17 32.60726 33.26090 30262 ft 394 kts 296°
2026-05-04 07:17 32.62297 33.23438 30604 ft 392 kts 296°
2026-05-04 07:17 32.63864 33.20791 30930 ft 391 kts 296°
2026-05-04 07:17 32.65428 33.18148 31226 ft 391 kts 296°
2026-05-04 07:18 32.66989 33.15505 31488 ft 391 kts 296°
2026-05-04 07:18 32.68546 33.12868 31756 ft 390 kts 296°
2026-05-04 07:18 32.70101 33.10233 32025 ft 390 kts 296°
2026-05-04 07:18 32.71661 33.07585 32004 ft 392 kts 296°
2026-05-04 07:19 32.74778 33.02297 32022 ft 389 kts 296°
2026-05-04 07:19 32.77872 32.97042 32017 ft 388 kts 296°
2026-05-04 07:20 32.80957 32.91791 32016 ft 386 kts 296°
2026-05-04 07:20 32.84028 32.86556 32012 ft 386 kts 296°
2026-05-04 07:22 32.96328 32.65514 32000 ft 389 kts 296°
2026-05-04 07:23 32.99404 32.60236 32008 ft 390 kts 296°
2026-05-04 07:23 33.02496 32.54921 32004 ft 391 kts 296°
2026-05-04 07:24 33.05598 32.49583 32002 ft 391 kts 297°
2026-05-04 07:24 33.08699 32.44238 31996 ft 392 kts 297°
2026-05-04 07:26 33.21032 32.22904 31990 ft 390 kts 297°
2026-05-04 07:27 33.24107 32.17566 31984 ft 389 kts 297°
2026-05-04 07:27 33.27170 32.12240 31982 ft 388 kts 297°
2026-05-04 07:28 33.30226 32.06918 31982 ft 388 kts 297°
2026-05-04 07:28 33.33277 32.01598 31978 ft 388 kts 297°
2026-05-04 07:29 33.36326 31.96272 31981 ft 387 kts 297°
2026-05-04 07:29 33.39354 31.90976 31978 ft 388 kts 298°
2026-05-04 07:30 33.42397 31.85645 31974 ft 388 kts 298°
2026-05-04 07:30 33.45441 31.80307 31976 ft 388 kts 298°
2026-05-04 07:31 33.48485 31.74962 31971 ft 389 kts 298°
2026-05-04 07:33 33.60659 31.53506 31956 ft 390 kts 298°
2026-05-04 07:33 33.63703 31.48121 31960 ft 391 kts 298°
2026-05-04 07:34 33.66753 31.42715 31961 ft 391 kts 298°
2026-05-04 07:34 33.69806 31.37298 31958 ft 391 kts 298°
2026-05-04 07:35 33.72856 31.31879 31957 ft 392 kts 298°
2026-05-04 07:35 33.75908 31.26446 31957 ft 392 kts 299°
2026-05-04 07:36 33.78946 31.21031 31953 ft 393 kts 299°
2026-05-04 07:38 33.91160 30.99179 31953 ft 394 kts 299°
2026-05-04 07:38 33.94218 30.93687 31951 ft 394 kts 299°
2026-05-04 07:39 33.97271 30.88197 31951 ft 394 kts 300°
2026-05-04 07:39 34.00324 30.82698 31948 ft 395 kts 300°
2026-05-04 07:40 34.03356 30.77228 31950 ft 395 kts 300°
2026-05-04 07:40 34.06407 30.71715 31952 ft 395 kts 300°
2026-05-04 07:41 34.09460 30.66189 31951 ft 395 kts 300°
2026-05-04 07:41 34.12492 30.60694 31952 ft 396 kts 300°
2026-05-04 07:42 34.15544 30.55154 31948 ft 396 kts 300°
2026-05-04 07:42 34.18600 30.49597 31949 ft 396 kts 300°
2026-05-04 07:43 34.21657 30.44030 31952 ft 397 kts 300°
2026-05-04 07:43 34.24692 30.38495 31951 ft 397 kts 300°
2026-05-04 07:44 34.27750 30.32909 31949 ft 398 kts 300°
2026-05-04 07:44 34.30802 30.27325 31953 ft 398 kts 300°
2026-05-04 07:45 34.33854 30.21732 31949 ft 398 kts 300°
2026-05-04 07:45 34.36893 30.16156 31948 ft 398 kts 301°
2026-05-04 07:46 34.39946 30.10543 31949 ft 399 kts 301°
2026-05-04 07:46 34.42987 30.04944 31950 ft 399 kts 301°
2026-05-04 07:47 34.46047 29.99358 31950 ft 400 kts 303°
2026-05-04 07:49 34.59582 29.77781 31940 ft 402 kts 304°
2026-05-04 07:49 34.62964 29.72363 31944 ft 402 kts 304°
2026-05-04 07:50 34.66324 29.66968 31953 ft 403 kts 304°
2026-05-04 07:50 34.69702 29.61535 31953 ft 403 kts 304°
2026-05-04 07:51 34.73083 29.56088 31955 ft 403 kts 304°
2026-05-04 07:51 34.76459 29.50643 31947 ft 403 kts 304°
2026-05-04 07:52 34.79818 29.45216 31947 ft 404 kts 304°
2026-05-04 07:52 34.83199 29.39744 31953 ft 404 kts 304°
2026-05-04 07:54 34.96726 29.17772 31954 ft 406 kts 305°
2026-05-04 07:55 35.00120 29.12237 31961 ft 407 kts 305°
2026-05-04 07:55 35.03492 29.06730 31958 ft 407 kts 305°
2026-05-04 07:56 35.06883 29.01182 31960 ft 407 kts 305°
2026-05-04 07:56 35.10276 28.95624 31962 ft 408 kts 305°
2026-05-04 07:57 35.13661 28.90069 31964 ft 408 kts 305°
2026-05-04 07:57 35.17028 28.84535 31965 ft 408 kts 305°
2026-05-04 07:58 35.20415 28.78960 31966 ft 408 kts 305°
2026-05-04 07:58 35.23802 28.73375 31967 ft 408 kts 305°
2026-05-04 07:59 35.26617 28.68726 31972 ft 409 kts 305°
2026-05-04 07:59 35.29997 28.63137 31976 ft 409 kts 305°
2026-05-04 08:00 35.33386 28.57524 31973 ft 409 kts 305°
2026-05-04 08:02 35.46896 28.35057 31994 ft 410 kts 305°
2026-05-04 08:02 35.50276 28.29415 31992 ft 411 kts 305°
2026-05-04 08:03 35.53635 28.23797 31994 ft 411 kts 305°
2026-05-04 08:03 35.57017 28.18131 31997 ft 411 kts 305°
2026-05-04 08:04 35.60402 28.12453 31994 ft 412 kts 305°
2026-05-04 08:04 35.63785 28.06768 31996 ft 412 kts 305°
2026-05-04 08:05 35.67167 28.01074 31998 ft 412 kts 305°
2026-05-04 08:05 35.70547 27.95375 32005 ft 412 kts 305°
2026-05-04 08:06 35.73928 27.89665 32012 ft 413 kts 305°
2026-05-04 08:06 35.77306 27.83951 32011 ft 413 kts 305°
2026-05-04 08:08 35.90775 27.61072 32020 ft 413 kts 305°
2026-05-04 08:11 36.05908 27.35184 32037 ft 414 kts 305°
2026-05-04 08:11 36.10957 27.26504 32039 ft 414 kts 305°
2026-05-04 08:12 36.14317 27.20714 32044 ft 415 kts 305°
2026-05-04 08:12 36.17667 27.14934 32051 ft 415 kts 305°
2026-05-04 08:13 36.21037 27.09108 32058 ft 415 kts 305°
2026-05-04 08:13 36.24400 27.03284 32063 ft 415 kts 305°
2026-05-04 08:14 36.27742 26.97487 32062 ft 415 kts 305°
2026-05-04 08:16 36.41155 26.74121 32065 ft 415 kts 305°
2026-05-04 08:16 36.44500 26.68270 32075 ft 415 kts 305°
2026-05-04 08:17 36.47816 26.62459 32077 ft 415 kts 306°
2026-05-04 08:17 36.51154 26.56599 32087 ft 415 kts 306°
2026-05-04 08:19 36.64455 26.33149 32096 ft 415 kts 306°
2026-05-04 08:20 36.67770 26.27278 32093 ft 414 kts 306°
2026-05-04 08:20 36.71067 26.21431 32102 ft 414 kts 306°
2026-05-04 08:21 36.74375 26.15553 32103 ft 414 kts 306°
2026-05-04 08:21 36.77683 26.09665 32103 ft 414 kts 306°
2026-05-04 08:22 36.80983 26.03780 32106 ft 414 kts 306°
2026-05-04 08:24 36.94124 25.80247 32119 ft 413 kts 306°
2026-05-04 08:24 36.97401 25.74353 32124 ft 413 kts 306°
2026-05-04 08:25 36.99035 25.71411 31935 ft 410 kts 306°
2026-05-04 08:25 37.00643 25.68510 31684 ft 402 kts 306°
2026-05-04 08:25 37.02223 25.65659 31432 ft 396 kts 306°
2026-05-04 08:25 37.03783 25.62840 31188 ft 392 kts 306°
2026-05-04 08:26 37.05334 25.60039 30945 ft 390 kts 306°
2026-05-04 08:27 37.15446 25.40333 29096 ft 386 kts 297°
2026-05-04 08:28 37.16564 25.37263 28816 ft 386 kts 297°
2026-05-04 08:28 37.17678 25.34193 28554 ft 387 kts 297°
2026-05-04 08:28 37.18799 25.31116 28278 ft 388 kts 297°
2026-05-04 08:28 37.19916 25.28067 28006 ft 388 kts 297°
2026-05-04 08:29 37.21047 25.24991 27745 ft 388 kts 297°
2026-05-04 08:29 37.22181 25.21917 27479 ft 389 kts 297°
2026-05-04 08:29 37.23318 25.18836 27217 ft 389 kts 297°
2026-05-04 08:31 37.31184 24.97470 25387 ft 381 kts 296°
2026-05-04 08:33 37.38730 24.76836 22025 ft 362 kts 296°
2026-05-04 08:33 37.39771 24.73980 21646 ft 356 kts 296°
2026-05-04 08:35 37.46791 24.54637 19323 ft 341 kts 297°
2026-05-04 08:35 37.47768 24.51936 18903 ft 338 kts 297°
2026-05-04 08:35 37.48741 24.49244 18475 ft 336 kts 297°
2026-05-04 08:35 37.49707 24.46569 17997 ft 334 kts 297°
2026-05-04 08:37 37.55311 24.31004 15454 ft 317 kts 297°
2026-05-04 08:37 37.56121 24.28464 15002 ft 320 kts 286°
2026-05-04 08:37 37.56298 24.25646 14579 ft 324 kts 273°
2026-05-04 08:38 37.56227 24.22813 14161 ft 323 kts 271°
2026-05-04 08:38 37.56121 24.19988 13718 ft 322 kts 271°
2026-05-04 08:38 37.56012 24.17177 13275 ft 320 kts 271°
2026-05-04 08:40 37.58341 23.99705 10303 ft 276 kts 314°
2026-05-04 08:40 37.59617 23.97933 9750 ft 274 kts 315°
2026-05-04 08:40 37.60896 23.96163 9175 ft 272 kts 315°
2026-05-04 08:41 37.62161 23.94401 8609 ft 270 kts 314°
2026-05-04 08:41 37.63414 23.92644 8054 ft 268 kts 314°
2026-05-04 08:41 37.64656 23.90892 7517 ft 266 kts 314°
2026-05-04 08:41 37.65889 23.89147 6982 ft 265 kts 314°
2026-05-04 08:42 37.67111 23.87414 6464 ft 263 kts 313°
2026-05-04 08:42 37.68305 23.85718 5919 ft 261 kts 313°
2026-05-04 08:42 37.69516 23.83995 5344 ft 262 kts 313°
2026-05-04 08:42 37.70729 23.82269 4789 ft 261 kts 313°
2026-05-04 08:43 37.71923 23.80568 4379 ft 255 kts 313°
2026-05-04 08:43 37.73069 23.78933 4201 ft 241 kts 313°
2026-05-04 08:43 37.74374 23.77732 3944 ft 228 kts 345°
2026-05-04 08:43 37.75885 23.77821 3816 ft 215 kts 18°
2026-05-04 08:44 37.77268 23.78512 3763 ft 211 kts 20°
2026-05-04 08:44 37.78552 23.79308 3650 ft 202 kts 27°
2026-05-04 08:46 37.85532 23.85556 2020 ft 155 kts 34°
2026-05-04 08:46 37.86392 23.86382 1786 ft 157 kts 34°
2026-05-04 08:46 37.87149 23.87104 1574 ft 151 kts 34°
2026-05-04 08:46 37.87994 23.87910 1388 ft 154 kts 35°
2026-05-04 08:47 37.88848 23.88728 1181 ft 156 kts 35°
2026-05-04 08:47 37.89699 23.89544 952 ft 153 kts 35°
2026-05-04 08:47 37.90534 23.90337 734 ft 150 kts 35°
2026-05-04 08:47 37.91350 23.91119 539 ft 146 kts 36°
2026-05-04 08:48 37.92158 23.91897 373 ft 144 kts 36°
2026-05-04 08:48 37.92926 23.92633 297 ft 130 kts 39°
2026-05-04 08:48 37.93480 23.93156 290 ft 68 kts 37°
2026-05-04 08:48 37.93674 23.93339 290 ft 46 kts 37°
2026-05-04 08:49 37.93891 23.93592 295 ft 39 kts 58°
2026-05-04 08:50 37.93493 23.93449 298 ft 19 kts 216°
2026-05-04 08:50 37.93419 23.93462 299 ft 9 kts 127°
2026-05-04 08:51 37.93375 23.93535 300 ft 12 kts 127°
2026-05-04 08:51 37.93318 23.93629 303 ft 14 kts 127°
2026-05-04 08:51 37.93254 23.93737 300 ft 17 kts 127°
2026-05-04 08:51 37.93177 23.93867 300 ft 19 kts 127°
2026-05-04 08:52 37.93099 23.94001 304 ft 19 kts 115°
2026-05-04 08:52 37.93167 23.94120 300 ft 18 kts 36°
2026-05-04 08:52 37.93266 23.94213 301 ft 17 kts 37°
2026-05-04 08:52 37.93260 23.94336 300 ft 16 kts 130°
2026-05-04 08:53 37.93192 23.94444 304 ft 16 kts 126°
2026-05-04 08:54 37.93409 23.94658 301 ft 1 kts 307°
2026-05-04 08:55 37.93412 23.94652 301 ft 0 kts 307°